Location: Sabalos
(43.2860°N, 0.1414°E)
Time: 04:35:03
(UTC+00:00)

Cosmos 1371 Rocket - Pass Details

Date: 05 July 2020
Orbit: 753 x 790 km, 74.0° (Epoch: 05 August)

Event Time Altitude Azimuth Distance (km) Brightness Sun altitude
Rises 22:35:04 0° 343° (NNW) 3,244 8.8 -20.9°
Reaches altitude 10° 22:37:30 10° 348° (NNW) 2,319 7.6 -21.1°
Maximum altitude 22:42:39 53° 66° (ENE) 948 4.4 -21.4°
Enters shadow 22:44:16 39° 117° (ESE) 1,156 4.5 -21.5°
